Find Paksat MM1

NORAD ID: 59915 Int'l Des: 2024-104 Owner: SUPA Country: PK operational
HEOCIRCULARGSOGEO

リアルタイム位置

3D地球を読み込み中...

Paksat MM1について

説明を読み込み中...

次回通過

Passes for default location (London). Set your location on the main map for personalized predictions.

高度履歴

Loading altitude history...

軌道要素

1 59915U 24104A 26106.92351449 .00000160 00000-0 00000-0 0 9999
2 59915 0.0034 152.7420 0002044 215.3589 207.5988 1.00268733 6917
Epoch: Apr 16, 2026 • Age: 14 hours

現在のステータス

高度 35781.5 km
速度 3.08 km/s
衛星直下点 -0.01°S, 38.17°E
打ち上げ日 May 30, 2024
運用期間 1.8 years
タイプ other

技術仕様

分類 Payload
質量 5400.00 kg
乾燥質量 2500.00 kg
総質量 5400.00 kg
長さ 3.60 m
直径 2.40 m
スパン 15.50 m
形状 Box + 2 Pan
製造者 CAST
バスタイプ DFH-4
フェーズステータス In Orbit
所有者/国 SUPA/PK

Most Searched